Regional Weather Roundup
Issued by NWS

Home | Current Version | Previous Version | Text Only | Print | Product List | Glossary Off
Versions: 1 2 3 4 5 6 7 8 9 10 11 12 13 14 15 16 17 18 19 20 21 22 23 24 25 26 27 28 29 30 31 32 33 34 35 36 37 38 39 40 41 42 43 44 45 46 47 48 49 50

000
ASUS43 KLSX 222159
RWRMO

WEATHER SUMMARY FOR MISSOURI
NATIONAL WEATHER SERVICE SPRINGFIELD MO
500 PM CDT TUE JUL 22 2014

NOTE: "FAIR" INDICATES FEW OR NO CLOUDS BELOW 12,000 FEET WITH NO
       SIGNIFICANT WEATHER AND/OR OBSTRUCTIONS TO VISIBILITY.
       CURRENT SKY AND/OR WEATHER CONDITIONS ARE NOT AVAILABLE FOR
       CHILLICOTHE AND FARMINGTON.

MOZ001>031-035>038-043-044-053-054-222300-
...NORTHERN AND WESTERN MISSOURI...

CITY           SKY/WX    TMP DP  RH WIND       PRES   REMARKS
KANSAS CTY INT MOSUNNY   95  76  53 SW8       30.00S HX 108
KANSAS C DTWN  MOSUNNY   99  70  38 W9        29.97F HX 106
LEE`S SUMMIT   PTSUNNY   95  74  50 SW9       30.00F HX 105
ST JOSEPH      SUNNY     94  79  61 W7        30.00R HX 111
CHILLICOTHE      N/A     94  80  64 VRB6      29.99S HX 113
KIRKSVILLE     PTSUNNY   90  78  68 W7        30.01R HX 104

$$
MOZ066>068-077>081-088>096-101>105-222300-
...SOUTHWEST MISSOURI...

CITY           SKY/WX    TMP DP  RH WIND       PRES   REMARKS
SPRINGFIELD    MOSUNNY   93  74  53 W7        30.05F HX 103
JOPLIN         PTSUNNY   95  74  50 SW8       30.05F HX 105

$$
MOZ032>034-039>042-045>050-055>058-069>072-222300-
...CENTRAL MISSOURI...

CITY           SKY/WX    TMP DP  RH WIND       PRES   REMARKS
COLUMBIA       MOSUNNY   94  77  57 SW13      29.99F HX 108
JEFFERSON CITY MOSUNNY   92  77  61 SW9       29.97F HX 105
ROLLA          PTSUNNY   93  71  48 SW10      30.01F HX 100
SEDALIA        PTSUNNY   93  78  61 S8        30.01S HX 108
OSAGE BEACH    MOSUNNY   93  75  55 SW8       30.01S HX 104

$$
MOZ051-052-059>065-222300-
...EAST CENTRAL MISSOURI...

CITY           SKY/WX    TMP DP  RH WIND       PRES   REMARKS
ST LOUIS INTL  PTSUNNY   93  73  52 SW9       30.00F HX 102
SPIRIT OF STL  PTSUNNY   90  73  57 SE5       29.99S HX  98
ST CHARLES     PTSUNNY   90  73  57 S5        29.99S HX  98

$$
MOZ072>076-082>087-097>100-106>115-222300-
...SOUTH CENTRAL AND SOUTHEAST MISSOURI...

CITY           SKY/WX    TMP DP  RH WIND       PRES   REMARKS
CAPE GIRARDEAU SUNNY     88  70  55 SW9       30.03F HX  93
FARMINGTON     PTSUNNY   84  70  61 S10       30.06S
POPLAR BLUFF   SUNNY     87  65  47 SW6       30.03F
WEST PLAINS    MOSUNNY   86  71  60 SE7       30.09F HX  91

$$


USA.gov is the U.S. government's official web portal to all federal, state and local government web resources and services.